owner,sensor,date,latitude,longitude,vertical_datum,direction_of_sea_water_velocity,sea_water_speed,upward_sea_water_velocity,qcFlag 
TABS,ioos:station:wmo:42049:1,2004-03-01T00:00:00Z,28.3507,-96.0058,2.0,220.9714301,46.30260468,-99999.0,'11111222,11111222,99999999' 
TABS,ioos:station:wmo:42049:1,2004-03-01T00:30:00Z,28.3507,-96.0058,2.0,217.0243361,47.39617284,-99999.0,'11111222,11111222,99999999' 
TABS,ioos:station:wmo:42049:1,2004-03-01T01:00:00Z,28.3507,-96.0058,2.0,216.0193132,43.39677868,-99999.0,'11111222,11111222,99999999' 
TABS,ioos:station:wmo:42049:1,2004-03-01T01:30:00Z,28.3507,-96.0058,2.0,218.2646756,38.52742011,-99999.0,'11111222,11111222,99999999' 
TABS,ioos:station:wmo:42049:1,2004-03-01T02:00:00Z,28.3507,-96.0058,2.0,222.1459849,37.21167827,-99999.0,'11111222,11111222,99999999' 
TABS,ioos:station:wmo:42049:1,2004-03-01T02:30:00Z,28.3507,-96.0058,2.0,217.1714788,35.30249,-99999.0,'11111222,11111222,99999999' 
TABS,ioos:station:wmo:42049:1,2004-03-01T03:00:00Z,28.3507,-96.0058,2.0,231.4421976,34.97516976,-99999.0,'11111222,11111222,99999999' 
TABS,ioos:station:wmo:42049:1,2004-03-01T03:30:00Z,28.3507,-96.0058,2.0,236.6320868,29.07229781,-99999.0,'11111222,11111222,99999999' 
TABS,ioos:station:wmo:42049:1,2004-03-01T04:00:00Z,28.3507,-96.0058,2.0,243.7344218,28.20167548,-99999.0,'11111222,11111222,99999999' 
TABS,ioos:station:wmo:42049:1,2004-03-01T04:30:00Z,28.3507,-96.0058,2.0,239.9196726,22.90464582,-99999.0,'11111222,11111222,99999999' 
TABS,ioos:station:wmo:42049:1,2004-03-01T05:00:00Z,28.3507,-96.0058,2.0,240.0403577,22.20733437,-99999.0,'11111222,11111222,99999999' 
TABS,ioos:station:wmo:42049:1,2004-03-01T05:30:00Z,28.3507,-96.0058,2.0,239.2394089,23.65837907,-99999.0,'11111222,11111222,99999999' 
TABS,ioos:station:wmo:42049:1,2004-03-01T06:00:00Z,28.3507,-96.0058,2.0,241.920871,16.08294127,-99999.0,'11111222,11111222,99999999' 
TABS,ioos:station:wmo:42049:1,2004-03-01T06:30:00Z,28.3507,-96.0058,2.0,244.588853,33.74464106,-99999.0,'11111222,11111222,99999999' 
TABS,ioos:station:wmo:42049:1,2004-03-01T07:00:00Z,28.3507,-96.0058,2.0,242.0225681,59.3453764,-99999.0,'11111222,11111222,99999999' 
TABS,ioos:station:wmo:42049:1,2004-03-01T07:30:00Z,28.3507,-96.0058,2.0,244.0482083,60.96765372,-99999.0,'11111222,11111222,99999999' 
TABS,ioos:station:wmo:42049:1,2004-03-01T08:00:00Z,28.3507,-96.0058,2.0,239.2290007,62.07941044,-99999.0,'11111222,11111222,99999999' 
TABS,ioos:station:wmo:42049:1,2004-03-01T08:30:00Z,28.3507,-96.0058,2.0,244.8828653,58.56791357,-99999.0,'11111222,11111222,99999999' 
TABS,ioos:station:wmo:42049:1,2004-03-01T09:00:00Z,28.3507,-96.0058,2.0,245.9630622,52.61223622,-99999.0,'11111222,11111222,99999999' 
TABS,ioos:station:wmo:42049:1,2004-03-01T09:30:00Z,28.3507,-96.0058,2.0,240.3025478,52.05739621,-99999.0,'11111222,11111222,99999999' 
TABS,ioos:station:wmo:42049:1,2004-03-01T10:00:00Z,28.3507,-96.0058,2.0,242.0292659,52.15184752,-99999.0,'11111222,11111222,99999999' 
TABS,ioos:station:wmo:42049:1,2004-03-01T10:30:00Z,28.3507,-96.0058,2.0,240.147011,46.16580986,-99999.0,'11111222,11111222,99999999' 
TABS,ioos:station:wmo:42049:1,2004-03-01T11:00:00Z,28.3507,-96.0058,2.0,237.9080526,41.56044393,-99999.0,'11111222,11111222,99999999' 
TABS,ioos:station:wmo:42049:1,2004-03-01T11:30:00Z,28.3507,-96.0058,2.0,240.0951699,42.30221034,-99999.0,'11111222,11111222,99999999' 
TABS,ioos:station:wmo:42049:1,2004-03-01T12:00:00Z,28.3507,-96.0058,2.0,237.0864877,39.27361073,-99999.0,'11111222,11111222,99999999' 
TABS,ioos:station:wmo:42049:1,2004-03-01T12:30:00Z,28.3507,-96.0058,2.0,238.2681885,40.57506254,-99999.0,'11111222,11111222,99999999' 
TABS,ioos:station:wmo:42049:1,2004-03-01T13:00:00Z,28.3507,-96.0058,2.0,235.9351836,44.98991998,-99999.0,'11111222,11111222,99999999' 
TABS,ioos:station:wmo:42049:1,2004-03-01T13:30:00Z,28.3507,-96.0058,2.0,238.7262186,39.66305712,-99999.0,'11111222,11111222,99999999' 
TABS,ioos:station:wmo:42049:1,2004-03-01T14:00:00Z,28.3507,-96.0058,2.0,238.434883,44.79789504,-99999.0,'11111222,11111222,99999999' 
TABS,ioos:station:wmo:42049:1,2004-03-01T14:30:00Z,28.3507,-96.0058,2.0,237.4047102,46.87240766,-99999.0,'11111222,11111222,99999999' 
TABS,ioos:station:wmo:42049:1,2004-03-01T15:00:00Z,28.3507,-96.0058,2.0,243.9191658,47.06196978,-99999.0,'11111222,11111222,99999999' 
TABS,ioos:station:wmo:42049:1,2004-03-01T15:30:00Z,28.3507,-96.0058,2.0,242.4999729,52.36673467,-99999.0,'11111222,11111222,99999999' 
TABS,ioos:station:wmo:42049:1,2004-03-01T16:00:00Z,28.3507,-96.0058,2.0,239.1192689,55.39238666,-99999.0,'11111222,11111222,99999999' 
TABS,ioos:station:wmo:42049:1,2004-03-01T16:30:00Z,28.3507,-96.0058,2.0,240.5076639,52.54906755,-99999.0,'11111222,11111222,99999999' 
TABS,ioos:station:wmo:42049:1,2004-03-01T17:00:00Z,28.3507,-96.0058,2.0,235.6650263,52.26715986,-99999.0,'11111222,11111222,99999999' 
TABS,ioos:station:wmo:42049:1,2004-03-01T18:00:00Z,28.3507,-96.0058,2.0,233.4788524,50.88094437,-99999.0,'11111222,11111222,99999999' 
TABS,ioos:station:wmo:42049:1,2004-03-01T18:30:00Z,28.3507,-96.0058,2.0,230.6155839,51.51959336,-99999.0,'11111222,11111222,99999999' 
TABS,ioos:station:wmo:42049:1,2004-03-01T19:00:00Z,28.3507,-96.0058,2.0,237.0114436,54.56717878,-99999.0,'11111222,11111222,99999999' 
TABS,ioos:station:wmo:42049:1,2004-03-01T19:30:00Z,28.3507,-96.0058,2.0,232.9047637,53.98441627,-99999.0,'11111222,11111222,99999999' 
TABS,ioos:station:wmo:42049:1,2004-03-01T20:00:00Z,28.3507,-96.0058,2.0,233.0203225,55.49210124,-99999.0,'11111222,11111222,99999999' 
TABS,ioos:station:wmo:42049:1,2004-03-01T20:30:00Z,28.3507,-96.0058,2.0,231.3017811,54.04550398,-99999.0,'11111222,11111222,99999999' 
TABS,ioos:station:wmo:42049:1,2004-03-01T21:00:00Z,28.3507,-96.0058,2.0,225.027688,57.86962588,-99999.0,'11111222,11111222,99999999' 
TABS,ioos:station:wmo:42049:1,2004-03-01T21:30:00Z,28.3507,-96.0058,2.0,225.7239992,56.49527502,-99999.0,'11111222,11111222,99999999' 
TABS,ioos:station:wmo:42049:1,2004-03-02T19:00:00Z,28.3507,-96.0058,2.0,233.4994487,60.13525172,-99999.0,'11111222,11111222,99999999' 
TABS,ioos:station:wmo:42049:1,2004-03-02T19:30:00Z,28.3507,-96.0058,2.0,231.7437668,64.24679681,-99999.0,'11111222,11111222,99999999' 
TABS,ioos:station:wmo:42049:1,2004-03-02T20:00:00Z,28.3507,-96.0058,2.0,233.6291108,68.61660586,-99999.0,'11111222,11111222,99999999' 
TABS,ioos:station:wmo:42049:1,2004-03-02T20:30:00Z,28.3507,-96.0058,2.0,234.8381183,76.14384414,-99999.0,'11111222,11111222,99999999' 
TABS,ioos:station:wmo:42049:1,2004-03-02T21:00:00Z,28.3507,-96.0058,2.0,240.0912805,74.76720203,-99999.0,'11111222,11111222,99999999' 
TABS,ioos:station:wmo:42049:1,2004-03-02T21:30:00Z,28.3507,-96.0058,2.0,240.0550337,75.78692367,-99999.0,'11111222,11111222,99999999' 
TABS,ioos:station:wmo:42049:1,2004-03-02T22:00:00Z,28.3507,-96.0058,2.0,244.5613669,73.6837438,-99999.0,'11111222,11111222,99999999' 
TABS,ioos:station:wmo:42049:1,2004-03-02T22:30:00Z,28.3507,-96.0058,2.0,239.6406196,77.18380724,-99999.0,'11111222,11111222,99999999' 
TABS,ioos:station:wmo:42049:1,2004-03-02T23:00:00Z,28.3507,-96.0058,2.0,238.2682674,75.14198893,-99999.0,'11111222,11111222,99999999' 
TABS,ioos:station:wmo:42049:1,2004-03-02T23:30:00Z,28.3507,-96.0058,2.0,243.5000666,70.44065942,-99999.0,'11111222,11111222,99999999' 
TABS,ioos:station:wmo:42049:1,2004-03-03T00:00:00Z,28.3507,-96.0058,2.0,246.7080808,67.9800559,-99999.0,'11111222,11111222,99999999' 
TABS,ioos:station:wmo:42049:1,2004-03-03T00:30:00Z,28.3507,-96.0058,2.0,252.144569,62.48980717,-99999.0,'11111222,11111222,99999999' 
TABS,ioos:station:wmo:42049:1,2004-03-03T01:00:00Z,28.3507,-96.0058,2.0,255.2402433,64.57055134,-99999.0,'11111222,11111222,99999999' 
TABS,ioos:station:wmo:42049:1,2004-03-03T01:30:00Z,28.3507,-96.0058,2.0,259.7210282,60.47043989,-99999.0,'11111222,11111222,99999999' 
TABS,ioos:station:wmo:42049:1,2004-03-03T02:00:00Z,28.3507,-96.0058,2.0,261.9336885,56.80192338,-99999.0,'11111222,11111222,99999999' 
TABS,ioos:station:wmo:42049:1,2004-03-03T02:30:00Z,28.3507,-96.0058,2.0,266.8986217,60.44851115,-99999.0,'11111222,11111222,99999999' 
TABS,ioos:station:wmo:42049:1,2004-03-03T03:00:00Z,28.3507,-96.0058,2.0,269.4692513,61.58263798,-99999.0,'11111222,11111222,99999999' 
TABS,ioos:station:wmo:42049:1,2004-03-03T03:30:00Z,28.3507,-96.0058,2.0,266.499422,62.40641153,-99999.0,'11111222,11111222,99999999' 
TABS,ioos:station:wmo:42049:1,2004-03-03T04:00:00Z,28.3507,-96.0058,2.0,265.9567622,59.14717998,-99999.0,'11111222,11111222,99999999' 
TABS,ioos:station:wmo:42049:1,2004-03-03T04:30:00Z,28.3507,-96.0058,2.0,262.4976398,53.92154671,-99999.0,'11111222,11111222,99999999' 
TABS,ioos:station:wmo:42049:1,2004-03-03T05:00:00Z,28.3507,-96.0058,2.0,263.0282386,55.03689036,-99999.0,'11111222,11111222,99999999' 
TABS,ioos:station:wmo:42049:1,2004-03-03T05:30:00Z,28.3507,-96.0058,2.0,258.1857684,52.84945884,-99999.0,'11111222,11111222,99999999' 
TABS,ioos:station:wmo:42049:1,2004-03-03T06:00:00Z,28.3507,-96.0058,2.0,254.9863324,50.49355701,-99999.0,'11111222,11111222,99999999' 
TABS,ioos:station:wmo:42049:1,2004-03-03T06:30:00Z,28.3507,-96.0058,2.0,255.3229451,47.95471405,-99999.0,'11111222,11111222,99999999' 
TABS,ioos:station:wmo:42049:1,2004-03-03T07:00:00Z,28.3507,-96.0058,2.0,254.646847,45.28607954,-99999.0,'11111222,11111222,99999999' 
TABS,ioos:station:wmo:42049:1,2004-03-03T07:30:00Z,28.3507,-96.0058,2.0,249.070297,45.63063006,-99999.0,'11111222,11111222,99999999' 
TABS,ioos:station:wmo:42049:1,2004-03-03T08:00:00Z,28.3507,-96.0058,2.0,248.7826268,38.96090861,-99999.0,'11111222,11111222,99999999' 
TABS,ioos:station:wmo:42049:1,2004-03-03T08:30:00Z,28.3507,-96.0058,2.0,243.365202,40.62044067,-99999.0,'11111222,11111222,99999999' 
TABS,ioos:station:wmo:42049:1,2004-03-03T09:00:00Z,28.3507,-96.0058,2.0,240.4034206,34.42099505,-99999.0,'11111222,11111222,99999999' 
TABS,ioos:station:wmo:42049:1,2004-03-03T09:30:00Z,28.3507,-96.0058,2.0,238.3811011,37.3668369,-99999.0,'11111222,11111222,99999999' 
TABS,ioos:station:wmo:42049:1,2004-03-03T10:00:00Z,28.3507,-96.0058,2.0,234.5778435,41.39121888,-99999.0,'11111222,11111222,99999999' 
TABS,ioos:station:wmo:42049:1,2004-03-03T10:30:00Z,28.3507,-96.0058,2.0,229.4144577,50.24760392,-99999.0,'11111222,11111222,99999999' 
TABS,ioos:station:wmo:42049:1,2004-03-03T11:00:00Z,28.3507,-96.0058,2.0,235.3246788,53.89153922,-99999.0,'11111222,11111222,99999999' 
TABS,ioos:station:wmo:42049:1,2004-03-03T11:30:00Z,28.3507,-96.0058,2.0,244.8121757,71.43171285,-99999.0,'11111222,11111222,99999999' 
TABS,ioos:station:wmo:42049:1,2004-03-03T12:00:00Z,28.3507,-96.0058,2.0,247.5018902,75.78786446,-99999.0,'11111222,11111222,99999999' 
TABS,ioos:station:wmo:42049:1,2004-03-03T12:30:00Z,28.3507,-96.0058,2.0,250.0938557,87.34875214,-99999.0,'11111222,11111222,99999999' 
TABS,ioos:station:wmo:42049:1,2004-03-03T13:00:00Z,28.3507,-96.0058,2.0,250.0529423,88.70113866,-99999.0,'11111222,11111222,99999999' 
TABS,ioos:station:wmo:42049:1,2004-03-03T13:30:00Z,28.3507,-96.0058,2.0,252.6598828,88.51251042,-99999.0,'11111222,11111222,99999999' 
TABS,ioos:station:wmo:42049:1,2004-03-03T14:00:00Z,28.3507,-96.0058,2.0,251.0975522,83.00622266,-99999.0,'11111222,11111222,99999999' 
TABS,ioos:station:wmo:42049:1,2004-03-03T14:30:00Z,28.3507,-96.0058,2.0,251.7764479,87.26681041,-99999.0,'11111222,11111222,99999999' 
TABS,ioos:station:wmo:42049:1,2004-03-03T15:00:00Z,28.3507,-96.0058,2.0,253.4068807,86.56465792,-99999.0,'11111222,11111222,99999999' 
TABS,ioos:station:wmo:42049:1,2004-03-03T15:30:00Z,28.3507,-96.0058,2.0,253.4031312,88.12111779,-99999.0,'11111222,11111222,99999999' 
TABS,ioos:station:wmo:42049:1,2004-03-03T16:00:00Z,28.3507,-96.0058,2.0,254.9502774,88.88864944,-99999.0,'11111222,11111222,99999999' 
TABS,ioos:station:wmo:42049:1,2004-03-03T16:30:00Z,28.3507,-96.0058,2.0,256.8600486,90.66364321,-99999.0,'11111222,11111222,99999999' 
TABS,ioos:station:wmo:42049:1,2004-03-03T17:00:00Z,28.3507,-96.0058,2.0,255.0427627,89.96807656,-99999.0,'11111222,11111222,99999999' 
TABS,ioos:station:wmo:42049:1,2004-03-03T17:30:00Z,28.3507,-96.0058,2.0,258.5242173,91.68271429,-99999.0,'11111222,11111222,99999999' 
TABS,ioos:station:wmo:42049:1,2004-03-03T18:00:00Z,28.3507,-96.0058,2.0,259.9066508,93.35468762,-99999.0,'11111222,11111222,99999999' 
TABS,ioos:station:wmo:42049:1,2004-03-03T18:30:00Z,28.3507,-96.0058,2.0,257.8704833,102.4674256,-99999.0,'11111222,11111222,99999999' 
TABS,ioos:station:wmo:42049:1,2004-03-03T19:00:00Z,28.3507,-96.0058,2.0,258.5592791,102.5474315,-99999.0,'11111222,11111222,99999999' 
TABS,ioos:station:wmo:42049:1,2004-03-03T19:30:00Z,28.3507,-96.0058,2.0,257.1404916,100.4697571,-99999.0,'11111222,11111222,99999999' 
TABS,ioos:station:wmo:42049:1,2004-03-03T20:00:00Z,28.3507,-96.0058,2.0,251.880328,96.4319584,-99999.0,'11111222,11111222,99999999' 
TABS,ioos:station:wmo:42049:1,2004-03-03T20:30:00Z,28.3507,-96.0058,2.0,252.3041885,95.30950058,-99999.0,'11111222,11111222,99999999' 
TABS,ioos:station:wmo:42049:1,2004-03-03T21:00:00Z,28.3507,-96.0058,2.0,250.839498,97.19406412,-99999.0,'11111222,11111222,99999999' 
TABS,ioos:station:wmo:42049:1,2004-03-03T21:30:00Z,28.3507,-96.0058,2.0,246.411911,96.08832447,-99999.0,'11111222,11111222,99999999' 
TABS,ioos:station:wmo:42049:1,2004-03-03T22:00:00Z,28.3507,-96.0058,2.0,243.7557624,97.33309612,-99999.0,'11111222,11111222,99999999' 
TABS,ioos:station:wmo:42049:1,2004-03-03T22:30:00Z,28.3507,-96.0058,2.0,240.6810567,98.02612356,-99999.0,'11111222,11111222,99999999' 
TABS,ioos:station:wmo:42049:1,2004-03-03T23:00:00Z,28.3507,-96.0058,2.0,239.4213188,100.1934554,-99999.0,'11111222,11111222,99999999' 
TABS,ioos:station:wmo:42049:1,2004-03-03T23:30:00Z,28.3507,-96.0058,2.0,237.2640595,93.07219241,-99999.0,'11111222,11111222,99999999' 
TABS,ioos:station:wmo:42049:1,2004-03-04T00:00:00Z,28.3507,-96.0058,2.0,236.197728,93.75837936,-99999.0,'11111222,11111222,99999999' 
TABS,ioos:station:wmo:42049:1,2004-03-04T00:30:00Z,28.3507,-96.0058,2.0,236.1963317,95.40862016,-99999.0,'11111222,11111222,99999999' 
TABS,ioos:station:wmo:42049:1,2004-03-04T01:00:00Z,28.3507,-96.0058,2.0,233.0890677,92.91202344,-99999.0,'11111222,11111222,99999999' 
TABS,ioos:station:wmo:42049:1,2004-03-04T01:30:00Z,28.3507,-96.0058,2.0,231.7452482,93.36925886,-99999.0,'11111222,11111222,99999999' 
TABS,ioos:station:wmo:42049:1,2004-03-04T02:00:00Z,28.3507,-96.0058,2.0,235.2534215,94.34279676,-99999.0,'11111222,11111222,99999999' 
TABS,ioos:station:wmo:42049:1,2004-03-04T02:30:00Z,28.3507,-96.0058,2.0,232.1801014,93.39882922,-99999.0,'11111222,11111222,99999999' 
TABS,ioos:station:wmo:42049:1,2004-03-04T03:00:00Z,28.3507,-96.0058,2.0,226.6402234,93.36222148,-99999.0,'11111222,11111222,99999999' 
TABS,ioos:station:wmo:42049:1,2004-03-04T03:30:00Z,28.3507,-96.0058,2.0,229.7867112,102.1017497,-99999.0,'11111222,11111222,99999999' 
TABS,ioos:station:wmo:42049:1,2004-03-04T04:00:00Z,28.3507,-96.0058,2.0,234.2394168,90.67500482,-99999.0,'11111222,11111222,99999999' 
TABS,ioos:station:wmo:42049:1,2004-03-04T04:30:00Z,28.3507,-96.0058,2.0,238.738858,59.54510895,-99999.0,'11111222,11111222,99999999' 
TABS,ioos:station:wmo:42049:1,2004-03-04T05:00:00Z,28.3507,-96.0058,2.0,236.3691598,93.36718749,-99999.0,'11111222,11111222,99999999' 
TABS,ioos:station:wmo:42049:1,2004-03-04T05:30:00Z,28.3507,-96.0058,2.0,233.0837161,92.06802974,-99999.0,'11111222,11111222,99999999' 
TABS,ioos:station:wmo:42049:1,2004-03-04T06:00:00Z,28.3507,-96.0058,2.0,232.3884781,96.77209928,-99999.0,'11111222,11111222,99999999' 
TABS,ioos:station:wmo:42049:1,2004-03-04T06:30:00Z,28.3507,-96.0058,2.0,232.8845757,90.66683021,-99999.0,'11111222,11111222,99999999' 
TABS,ioos:station:wmo:42049:1,2004-03-04T07:00:00Z,28.3507,-96.0058,2.0,231.9359086,83.32008701,-99999.0,'11111222,11111222,99999999' 
TABS,ioos:station:wmo:42049:1,2004-03-04T07:30:00Z,28.3507,-96.0058,2.0,229.5862787,85.3311391,-99999.0,'11111222,11111222,99999999' 
TABS,ioos:station:wmo:42049:1,2004-03-04T08:00:00Z,28.3507,-96.0058,2.0,227.9124867,83.48989879,-99999.0,'11111222,11111222,99999999' 
TABS,ioos:station:wmo:42049:1,2004-03-04T08:30:00Z,28.3507,-96.0058,2.0,231.852454,54.63957723,-99999.0,'11111222,11111222,99999999' 
TABS,ioos:station:wmo:42049:1,2004-03-04T09:00:00Z,28.3507,-96.0058,2.0,241.1532924,37.41223597,-99999.0,'11111222,11111222,99999999' 
TABS,ioos:station:wmo:42049:1,2004-03-04T09:30:00Z,28.3507,-96.0058,2.0,240.4789231,37.72793395,-99999.0,'11111222,11111222,99999999' 
TABS,ioos:station:wmo:42049:1,2004-03-04T10:00:00Z,28.3507,-96.0058,2.0,241.9716337,34.8582458,-99999.0,'11111222,11111222,99999999' 
TABS,ioos:station:wmo:42049:1,2004-03-04T10:30:00Z,28.3507,-96.0058,2.0,240.6695776,34.95018312,-99999.0,'11111222,11111222,99999999' 
TABS,ioos:station:wmo:42049:1,2004-03-04T11:00:00Z,28.3507,-96.0058,2.0,247.1103705,45.48127197,-99999.0,'11111222,11111222,99999999' 
TABS,ioos:station:wmo:42049:1,2004-03-04T11:30:00Z,28.3507,-96.0058,2.0,240.4047084,51.1880699,-99999.0,'11111222,11111222,99999999' 
TABS,ioos:station:wmo:42049:1,2004-03-04T12:00:00Z,28.3507,-96.0058,2.0,235.5015481,48.18327718,-99999.0,'11111222,11111222,99999999' 
TABS,ioos:station:wmo:42049:1,2004-03-04T12:30:00Z,28.3507,-96.0058,2.0,241.1397695,48.58399942,-99999.0,'11111222,11111222,99999999' 
TABS,ioos:station:wmo:42049:1,2004-03-04T13:00:00Z,28.3507,-96.0058,2.0,243.7449923,49.52963254,-99999.0,'11111222,11111222,99999999' 
TABS,ioos:station:wmo:42049:1,2004-03-04T13:30:00Z,28.3507,-96.0058,2.0,240.6267774,53.68088393,-99999.0,'11111222,11111222,99999999' 
TABS,ioos:station:wmo:42049:1,2004-03-04T14:00:00Z,28.3507,-96.0058,2.0,238.9789976,56.99072293,-99999.0,'11111222,11111222,99999999' 
TABS,ioos:station:wmo:42049:1,2004-03-04T14:30:00Z,28.3507,-96.0058,2.0,238.4619141,52.72817084,-99999.0,'11111222,11111222,99999999' 
TABS,ioos:station:wmo:42049:1,2004-03-04T15:00:00Z,28.3507,-96.0058,2.0,237.5606019,51.95728438,-99999.0,'11111222,11111222,99999999' 
TABS,ioos:station:wmo:42049:1,2004-03-04T15:30:00Z,28.3507,-96.0058,2.0,235.3889286,48.50369986,-99999.0,'11111222,11111222,99999999' 
TABS,ioos:station:wmo:42049:1,2004-03-04T16:00:00Z,28.3507,-96.0058,2.0,239.8639805,44.73664829,-99999.0,'11111222,11111222,99999999' 
TABS,ioos:station:wmo:42049:1,2004-03-04T16:30:00Z,28.3507,-96.0058,2.0,235.8245024,38.32838374,-99999.0,'11111222,11111222,99999999' 
TABS,ioos:station:wmo:42049:1,2004-03-04T17:00:00Z,28.3507,-96.0058,2.0,239.4246253,48.02756917,-99999.0,'11111222,11111222,99999999' 
TABS,ioos:station:wmo:42049:1,2004-03-04T17:30:00Z,28.3507,-96.0058,2.0,235.2214681,36.2201339,-99999.0,'11111222,11111222,99999999' 
TABS,ioos:station:wmo:42049:1,2004-03-04T18:00:00Z,28.3507,-96.0058,2.0,234.020156,32.56193176,-99999.0,'11111222,11111222,99999999' 
TABS,ioos:station:wmo:42049:1,2004-03-04T18:30:00Z,28.3507,-96.0058,2.0,235.2472006,27.82299768,-99999.0,'11111222,11111222,99999999' 
TABS,ioos:station:wmo:42049:1,2004-03-04T19:00:00Z,28.3507,-96.0058,2.0,238.0438183,19.61208811,-99999.0,'11111222,11111222,99999999' 
TABS,ioos:station:wmo:42049:1,2004-03-04T19:30:00Z,28.3507,-96.0058,2.0,266.6243873,23.10006926,-99999.0,'11111222,11111222,99999999' 
TABS,ioos:station:wmo:42049:1,2004-03-04T20:00:00Z,28.3507,-96.0058,2.0,273.5449139,19.08651094,-99999.0,'11111222,11111222,99999999' 
TABS,ioos:station:wmo:42049:1,2004-03-04T20:30:00Z,28.3507,-96.0058,2.0,279.5140458,16.51717288,-99999.0,'11111222,11111222,99999999' 
TABS,ioos:station:wmo:42049:1,2004-03-04T21:00:00Z,28.3507,-96.0058,2.0,281.3800466,16.11683592,-99999.0,'11111222,11111222,99999999' 
TABS,ioos:station:wmo:42049:1,2004-03-04T21:30:00Z,28.3507,-96.0058,2.0,313.0137852,12.03511944,-99999.0,'11111222,11111222,99999999' 
TABS,ioos:station:wmo:42049:1,2004-03-04T22:00:00Z,28.3507,-96.0058,2.0,313.6290216,9.159656107,-99999.0,'11133222,11111222,99999999' 
TABS,ioos:station:wmo:42049:1,2004-03-04T22:30:00Z,28.3507,-96.0058,2.0,332.9515398,11.65480159,-99999.0,'11111222,11111222,99999999' 
TABS,ioos:station:wmo:42049:1,2004-03-04T23:00:00Z,28.3507,-96.0058,2.0,323.1030437,8.378000955,-99999.0,'11133222,11111222,99999999' 
TABS,ioos:station:wmo:42049:1,2004-03-04T23:30:00Z,28.3507,-96.0058,2.0,317.3643897,6.171223542,-99999.0,'11133222,11111222,99999999' 
TABS,ioos:station:wmo:42049:1,2004-03-05T00:00:00Z,28.3507,-96.0058,2.0,317.3326974,10.07754931,-99999.0,'11111222,11111222,99999999' 
TABS,ioos:station:wmo:42049:1,2004-03-05T00:30:00Z,28.3507,-96.0058,2.0,322.4633389,7.730523915,-99999.0,'11133222,11111222,99999999' 
TABS,ioos:station:wmo:42049:1,2004-03-05T01:00:00Z,28.3507,-96.0058,2.0,304.7125473,6.37451959,-99999.0,'11133222,11111222,99999999' 
TABS,ioos:station:wmo:42049:1,2004-03-05T01:30:00Z,28.3507,-96.0058,2.0,306.6613157,4.38802917,-99999.0,'11133222,11111222,99999999' 
TABS,ioos:station:wmo:42049:1,2004-03-05T02:00:00Z,28.3507,-96.0058,2.0,312.0373467,3.419897659,-99999.0,'11133222,11111222,99999999' 
TABS,ioos:station:wmo:42049:1,2004-03-05T02:30:00Z,28.3507,-96.0058,2.0,212.7870855,2.640700665,-99999.0,'11133222,11111222,99999999' 
TABS,ioos:station:wmo:42049:1,2004-03-05T03:00:00Z,28.3507,-96.0058,2.0,178.2052128,3.831879434,-99999.0,'11133222,11111222,99999999' 
TABS,ioos:station:wmo:42049:1,2004-03-05T03:30:00Z,28.3507,-96.0058,2.0,187.7880298,7.822154435,-99999.0,'11133222,11111222,99999999' 
TABS,ioos:station:wmo:42049:1,2004-03-05T04:00:00Z,28.3507,-96.0058,2.0,193.4589026,10.35437106,-99999.0,'11111222,11111222,99999999' 
TABS,ioos:station:wmo:42049:1,2004-03-05T04:30:00Z,28.3507,-96.0058,2.0,206.116257,15.42486953,-99999.0,'11111222,11111222,99999999' 
TABS,ioos:station:wmo:42049:1,2004-03-05T05:00:00Z,28.3507,-96.0058,2.0,201.9919458,18.95959915,-99999.0,'11111222,11111222,99999999' 
TABS,ioos:station:wmo:42049:1,2004-03-05T05:30:00Z,28.3507,-96.0058,2.0,208.8792354,24.47360415,-99999.0,'11111222,11111222,99999999' 
TABS,ioos:station:wmo:42049:1,2004-03-05T06:00:00Z,28.3507,-96.0058,2.0,203.723475,28.50913713,-99999.0,'11111222,11111222,99999999' 
TABS,ioos:station:wmo:42049:1,2004-03-05T06:30:00Z,28.3507,-96.0058,2.0,203.8427349,22.88290628,-99999.0,'11111222,11111222,99999999' 
TABS,ioos:station:wmo:42049:1,2004-03-05T07:00:00Z,28.3507,-96.0058,2.0,207.6323854,29.04262041,-99999.0,'11111222,11111222,99999999' 
TABS,ioos:station:wmo:42049:1,2004-03-05T07:30:00Z,28.3507,-96.0058,2.0,208.0800479,30.10352969,-99999.0,'11111222,11111222,99999999' 
TABS,ioos:station:wmo:42049:1,2004-03-05T08:00:00Z,28.3507,-96.0058,2.0,240.7926851,93.14178708,-99999.0,'11111222,11111222,99999999' 
TABS,ioos:station:wmo:42049:1,2004-03-05T08:30:00Z,28.3507,-96.0058,2.0,248.0258332,104.9220549,-99999.0,'11111222,11111222,99999999' 
TABS,ioos:station:wmo:42049:1,2004-03-05T09:00:00Z,28.3507,-96.0058,2.0,248.8753511,109.991316,-99999.0,'11111222,11111222,99999999' 
TABS,ioos:station:wmo:42049:1,2004-03-05T09:30:00Z,28.3507,-96.0058,2.0,245.3050141,109.3393708,-99999.0,'11111222,11111222,99999999' 
TABS,ioos:station:wmo:42049:1,2004-03-05T10:00:00Z,28.3507,-96.0058,2.0,244.6427549,106.89887,-99999.0,'11111222,11111222,99999999' 
TABS,ioos:station:wmo:42049:1,2004-03-05T10:30:00Z,28.3507,-96.0058,2.0,242.5323181,114.451678,-99999.0,'11111222,11111222,99999999' 
TABS,ioos:station:wmo:42049:1,2004-03-05T11:00:00Z,28.3507,-96.0058,2.0,241.4219057,113.2014602,-99999.0,'11111222,11111222,99999999' 
TABS,ioos:station:wmo:42049:1,2004-03-05T11:30:00Z,28.3507,-96.0058,2.0,242.7232782,99.78551498,-99999.0,'11111222,11111222,99999999' 
TABS,ioos:station:wmo:42049:1,2004-03-05T12:00:00Z,28.3507,-96.0058,2.0,242.0428363,99.0602019,-99999.0,'11111222,11111222,99999999' 
TABS,ioos:station:wmo:42049:1,2004-03-05T12:30:00Z,28.3507,-96.0058,2.0,244.0490726,90.9058634,-99999.0,'11111222,11111222,99999999' 
TABS,ioos:station:wmo:42049:1,2004-03-05T13:00:00Z,28.3507,-96.0058,2.0,246.8433312,87.17305146,-99999.0,'11111222,11111222,99999999' 
TABS,ioos:station:wmo:42049:1,2004-03-05T13:30:00Z,28.3507,-96.0058,2.0,252.5916152,78.51615439,-99999.0,'11111222,11111222,99999999' 